Location: Newark
(57.7279°N, 5.6916°W)
Time: 07:39:40
(UTC+00:00)

N. Korean satellite - Pass Details

Date: 07 December 2019
Orbit: 454 x 507 km, 97.2° (Epoch: 28 January)

Event Time Altitude Azimuth Distance (km) Brightness Sun altitude
Rises 18:31:28 0° 212° (SSW) 2,609 10.9 -21.3°
Reaches altitude 10° 18:34:18 10° 236° (SW) 1,727 10.3 -21.6°
Maximum altitude 18:36:31 15° 273° (W) 1,433 9.9 -21.9°
Drops below altitude 10° 18:38:45 10° 310° (NW) 1,728 9.9 -22.2°
Sets 18:41:35 0° 334° (NNW) 2,611 10.5 -22.6°
